SKW5799 KMKE-KORD

Flight info

Callsign SKW5799
Flight time N/A
Altitude 19000
Route LYNNI ERNNY8
Aircraft E75L/M-SDE3GILORVW/S

Departure

Time 2026-04-17 06:12
Airport General Mitchell International Airport (KMKE)

Arrival

Time N/A
Airport Chicago O'Hare International Airport (KORD)
Time Latitude Longitude Altitude Speed Heading
2026-04-17 06:12 42.96479 -87.82050 4119 ft 218 kts 122°
2026-04-17 06:12 42.95680 -87.80257 4721 ft 223 kts 125°
2026-04-17 06:13 42.94819 -87.78468 5318 ft 226 kts 126°
2026-04-17 06:13 42.93935 -87.76675 5917 ft 229 kts 126°
2026-04-17 06:13 42.93033 -87.74871 6496 ft 231 kts 126°
2026-04-17 06:13 42.92120 -87.73080 7012 ft 235 kts 127°
2026-04-17 06:14 42.91159 -87.71261 7518 ft 238 kts 128°
2026-04-17 06:14 42.90166 -87.69432 8026 ft 240 kts 128°
2026-04-17 06:14 42.88077 -87.65725 9022 ft 246 kts 129°
2026-04-17 06:15 42.86995 -87.63872 9482 ft 248 kts 129°
2026-04-17 06:15 42.85917 -87.62063 9918 ft 250 kts 130°
2026-04-17 06:15 42.84804 -87.60228 10316 ft 252 kts 130°
2026-04-17 06:15 42.83619 -87.58469 10704 ft 253 kts 140°
2026-04-17 06:16 42.82124 -87.57227 11108 ft 252 kts 159°
2026-04-17 06:16 42.80481 -87.56361 11533 ft 257 kts 162°
2026-04-17 06:16 42.78769 -87.55523 11981 ft 271 kts 162°
2026-04-17 06:16 42.76879 -87.54600 11982 ft 304 kts 162°
2026-04-17 06:17 42.74804 -87.53576 12062 ft 330 kts 161°
2026-04-17 06:17 42.72547 -87.52528 12152 ft 352 kts 168°
2026-04-17 06:17 42.70085 -87.52113 12574 ft 360 kts 178°
2026-04-17 06:17 42.67577 -87.51954 13249 ft 362 kts 180°
2026-04-17 06:18 42.65052 -87.51811 13961 ft 364 kts 179°
2026-04-17 06:18 42.62515 -87.51643 14641 ft 366 kts 179°
2026-04-17 06:18 42.59964 -87.51464 15337 ft 368 kts 179°
2026-04-17 06:18 42.57396 -87.51281 15981 ft 372 kts 179°
2026-04-17 06:19 42.54794 -87.51097 16591 ft 376 kts 179°
2026-04-17 06:19 42.52204 -87.50981 17170 ft 378 kts 185°
2026-04-17 06:19 42.49570 -87.51235 17762 ft 380 kts 188°
2026-04-17 06:19 42.46926 -87.51620 18333 ft 384 kts 189°
2026-04-17 06:20 42.44259 -87.52008 18832 ft 386 kts 189°
2026-04-17 06:20 42.41596 -87.52382 19102 ft 381 kts 189°
2026-04-17 06:20 42.38994 -87.52734 19014 ft 370 kts 189°
2026-04-17 06:20 42.36451 -87.53073 19029 ft 365 kts 189°
2026-04-17 06:21 42.33966 -87.53714 19016 ft 360 kts 202°
2026-04-17 06:21 42.31773 -87.55252 19019 ft 353 kts 220°
2026-04-17 06:21 42.29874 -87.57348 19031 ft 352 kts 224°
2026-04-17 06:21 42.28020 -87.59505 19041 ft 352 kts 224°
2026-04-17 06:22 42.26162 -87.61661 19046 ft 352 kts 223°
2026-04-17 06:22 42.24247 -87.63731 19038 ft 353 kts 221°
2026-04-17 06:22 42.22316 -87.65723 18987 ft 353 kts 220°
2026-04-17 06:22 42.20356 -87.67740 18991 ft 353 kts 221°
2026-04-17 06:23 42.18345 -87.69641 19015 ft 356 kts 211°
2026-04-17 06:23 42.16002 -87.70792 19026 ft 361 kts 199°
2026-04-17 06:23 42.13559 -87.71631 19016 ft 362 kts 197°
2026-04-17 06:23 42.11112 -87.72445 19002 ft 361 kts 197°
2026-04-17 06:24 42.08673 -87.73268 19011 ft 361 kts 197°
2026-04-17 06:24 42.06238 -87.74096 19023 ft 361 kts 197°
2026-04-17 06:24 42.03778 -87.74938 18473 ft 370 kts 197°
2026-04-17 06:24 42.01295 -87.75781 17904 ft 364 kts 197°
2026-04-17 06:25 41.98867 -87.76612 17380 ft 356 kts 197°
2026-04-17 06:25 41.96486 -87.77428 16913 ft 349 kts 197°
2026-04-17 06:25 41.94243 -87.78181 16472 ft 346 kts 194°
2026-04-17 06:25 41.91944 -87.79058 15935 ft 343 kts 206°
2026-04-17 06:26 41.90051 -87.80892 15539 ft 333 kts 229°
2026-04-17 06:26 41.88875 -87.83514 15173 ft 327 kts 249°
2026-04-17 06:26 41.88361 -87.86471 14742 ft 325 kts 264°
2026-04-17 06:26 41.88279 -87.89462 14309 ft 317 kts 268°
2026-04-17 06:27 41.88271 -87.92328 13856 ft 303 kts 269°
2026-04-17 06:27 41.88279 -87.95093 13467 ft 290 kts 269°
2026-04-17 06:27 41.88289 -87.97744 13109 ft 277 kts 269°
2026-04-17 06:27 41.88289 -88.00286 12747 ft 267 kts 268°
2026-04-17 06:28 41.88215 -88.02732 12393 ft 257 kts 266°
2026-04-17 06:28 41.88125 -88.05091 12064 ft 249 kts 266°
2026-04-17 06:28 41.88044 -88.07368 11733 ft 241 kts 266°
2026-04-17 06:28 41.87967 -88.09598 11425 ft 238 kts 267°
2026-04-17 06:29 41.87892 -88.11834 11139 ft 241 kts 267°
2026-04-17 06:29 41.87818 -88.14085 10782 ft 243 kts 267°
2026-04-17 06:29 41.87741 -88.16332 10460 ft 243 kts 267°
2026-04-17 06:29 41.87666 -88.18600 10139 ft 242 kts 267°
2026-04-17 06:30 41.87588 -88.20861 9811 ft 242 kts 267°
2026-04-17 06:30 41.87510 -88.23112 9487 ft 241 kts 267°
2026-04-17 06:30 41.87433 -88.25341 9181 ft 238 kts 267°
2026-04-17 06:30 41.87355 -88.27556 8864 ft 237 kts 267°
2026-04-17 06:31 41.87262 -88.29753 8608 ft 233 kts 266°
2026-04-17 06:31 41.87150 -88.31929 8231 ft 235 kts 265°
2026-04-17 06:31 41.87165 -88.34100 7975 ft 229 kts 282°
2026-04-17 06:31 41.87833 -88.35947 8002 ft 218 kts 306°
2026-04-17 06:32 41.89015 -88.37224 8042 ft 223 kts 330°
2026-04-17 06:32 41.90540 -88.37686 8092 ft 232 kts 356°
2026-04-17 06:32 41.92164 -88.37138 7672 ft 254 kts 25°
2026-04-17 06:32 41.93415 -88.35425 7215 ft 266 kts 58°
2026-04-17 06:33 41.93947 -88.33063 6820 ft 271 kts 78°
2026-04-17 06:33 41.94153 -88.30534 6416 ft 274 kts 81°
2026-04-17 06:33 41.94382 -88.27977 6005 ft 276 kts 79°
2026-04-17 06:33 41.94680 -88.25425 5573 ft 278 kts 76°
2026-04-17 06:34 41.95093 -88.22884 5148 ft 279 kts 74°
2026-04-17 06:34 41.95692 -88.20429 4737 ft 277 kts 56°
2026-04-17 06:34 41.96638 -88.18225 4257 ft 268 kts 69°
2026-04-17 06:34 41.96760 -88.15788 3738 ft 259 kts 97°
2026-04-17 06:35 41.96494 -88.13493 3551 ft 240 kts 94°
2026-04-17 06:35 41.96504 -88.11306 3277 ft 229 kts 85°
2026-04-17 06:35 41.96563 -88.09213 3005 ft 219 kts 90°
2026-04-17 06:35 41.96531 -88.07209 2730 ft 210 kts 90°
2026-04-17 06:36 41.96532 -88.05293 2478 ft 199 kts 88°
2026-04-17 06:36 41.96551 -88.03515 2212 ft 187 kts 89°
2026-04-17 06:36 41.96553 -88.01850 1985 ft 168 kts 89°
2026-04-17 06:36 41.96552 -88.00357 1759 ft 154 kts 90°
2026-04-17 06:37 41.96551 -87.98975 1546 ft 143 kts 88°
2026-04-17 06:37 41.96561 -87.97672 1357 ft 135 kts 88°
2026-04-17 06:37 41.96576 -87.96437 1191 ft 130 kts 88°
2026-04-17 06:37 41.96540 -87.95213 1012 ft 134 kts 93°
2026-04-17 06:38 41.96557 -87.94398 886 ft 130 kts 83°
2026-04-17 06:38 41.96576 -87.93169 734 ft 133 kts 91°
2026-04-17 06:38 41.96568 -87.91930 1222 ft 135 kts 88°
2026-04-17 06:38 41.96512 -87.90577 1954 ft 148 kts 104°
2026-04-17 06:39 41.96220 -87.88406 2783 ft 198 kts 92°
2026-04-17 06:39 41.96396 -87.87128 3373 ft 218 kts 63°
2026-04-17 06:39 41.97408 -87.85482 4232 ft 243 kts 36°
2026-04-17 06:39 41.98588 -87.83716 5155 ft 266 kts 54°
2026-04-17 06:40 41.99563 -87.81571 5580 ft 262 kts 55°
2026-04-17 06:40 42.00528 -87.79456 5005 ft 275 kts 55°
2026-04-17 06:40 42.01578 -87.77211 4328 ft 285 kts 54°
2026-04-17 06:40 42.02593 -87.75060 4592 ft 255 kts 55°
2026-04-17 06:41 42.03501 -87.73101 5355 ft 246 kts 55°
2026-04-17 06:41 42.04441 -87.71057 5469 ft 263 kts 55°
2026-04-17 06:41 42.05406 -87.68974 5153 ft 263 kts 55°
2026-04-17 06:41 42.06395 -87.66881 4849 ft 260 kts 54°
2026-04-17 06:42 42.07323 -87.64902 5044 ft 245 kts 55°
2026-04-17 06:42 42.08244 -87.62942 5027 ft 249 kts 55°
2026-04-17 06:42 42.09172 -87.60971 5021 ft 249 kts 55°
2026-04-17 06:42 42.10102 -87.58998 5015 ft 249 kts 55°
2026-04-17 06:43 42.11031 -87.57029 5009 ft 249 kts 54°
2026-04-17 06:43 42.11961 -87.55058 5018 ft 249 kts 54°
2026-04-17 06:43 42.12880 -87.53111 5016 ft 249 kts 54°
2026-04-17 06:43 42.13811 -87.51143 5015 ft 249 kts 54°
2026-04-17 06:44 42.14743 -87.49174 5015 ft 249 kts 54°
2026-04-17 06:44 42.15679 -87.47200 5014 ft 249 kts 54°
2026-04-17 06:44 42.16612 -87.45233 5016 ft 249 kts 54°
2026-04-17 06:44 42.17545 -87.43267 5021 ft 249 kts 54°
2026-04-17 06:45 42.18476 -87.41300 5021 ft 249 kts 54°
2026-04-17 06:45 42.19410 -87.39335 5022 ft 249 kts 54°
2026-04-17 06:45 42.20342 -87.37372 5021 ft 249 kts 54°
2026-04-17 06:45 42.21277 -87.35409 5022 ft 249 kts 54°
2026-04-17 06:46 42.22214 -87.33441 5016 ft 249 kts 54°
2026-04-17 06:46 42.23147 -87.31477 4994 ft 247 kts 54°
2026-04-17 06:46 42.24051 -87.29542 4992 ft 247 kts 54°
2026-04-17 06:46 42.24968 -87.27584 4999 ft 247 kts 54°
2026-04-17 06:47 42.25876 -87.25610 4997 ft 247 kts 56°
2026-04-17 06:47 42.26739 -87.23599 5003 ft 248 kts 58°
2026-04-17 06:47 42.27533 -87.21536 4995 ft 248 kts 64°
2026-04-17 06:47 42.28043 -87.19297 5014 ft 259 kts 77°
2026-04-17 06:48 42.28225 -87.16772 5037 ft 276 kts 87°
2026-04-17 06:48 42.28070 -87.14179 5032 ft 279 kts 98°
2026-04-17 06:48 42.27574 -87.11638 5009 ft 280 kts 108°
2026-04-17 06:48 42.26741 -87.09264 5005 ft 279 kts 120°
2026-04-17 06:49 42.25629 -87.07125 4996 ft 279 kts 127°
2026-04-17 06:49 42.24419 -87.05080 4994 ft 279 kts 128°
2026-04-17 06:49 42.23201 -87.03081 4991 ft 279 kts 129°
2026-04-17 06:49 42.21961 -87.01070 4991 ft 279 kts 128°
2026-04-17 06:50 42.20734 -86.99043 4989 ft 279 kts 128°
2026-04-17 06:50 42.19511 -86.97018 4997 ft 279 kts 128°
2026-04-17 06:50 42.18287 -86.94986 5011 ft 279 kts 128°
2026-04-17 06:50 42.17058 -86.92946 5003 ft 281 kts 127°
2026-04-17 06:51 42.15828 -86.90898 4999 ft 281 kts 127°
2026-04-17 06:51 42.14600 -86.88855 4992 ft 280 kts 127°
2026-04-17 06:51 42.13371 -86.86810 4995 ft 280 kts 127°
2026-04-17 06:51 42.12146 -86.84776 4996 ft 280 kts 127°
2026-04-17 06:52 42.10920 -86.82733 4995 ft 280 kts 127°
2026-04-17 06:52 42.09693 -86.80691 4997 ft 280 kts 127°
2026-04-17 06:52 42.08481 -86.78674 4991 ft 280 kts 127°
2026-04-17 06:52 42.07249 -86.76599 4997 ft 280 kts 124°
2026-04-17 06:53 42.06102 -86.74511 4988 ft 281 kts 126°
2026-04-17 06:53 42.04843 -86.72512 4982 ft 280 kts 137°
2026-04-17 06:53 42.03257 -86.70973 4815 ft 281 kts 146°
2026-04-17 06:53 42.01629 -86.69524 4602 ft 279 kts 145°
2026-04-17 06:54 42.00017 -86.68076 4396 ft 278 kts 145°
2026-04-17 06:54 41.98414 -86.66635 4193 ft 277 kts 145°
2026-04-17 06:54 41.96811 -86.65191 3988 ft 276 kts 145°
2026-04-17 06:54 41.95238 -86.63772 3789 ft 275 kts 145°
2026-04-17 06:55 41.93650 -86.62337 3579 ft 274 kts 145°
2026-04-17 06:55 41.92073 -86.60909 3387 ft 273 kts 145°
2026-04-17 06:55 41.90502 -86.59487 3193 ft 272 kts 145°
2026-04-17 06:55 41.88937 -86.58068 2998 ft 271 kts 145°
2026-04-17 06:56 41.87384 -86.56665 2796 ft 265 kts 145°
2026-04-17 06:56 41.85875 -86.55309 2595 ft 257 kts 145°
2026-04-17 06:56 41.84443 -86.54024 2663 ft 237 kts 146°
2026-04-17 06:56 41.83170 -86.52882 3086 ft 200 kts 146°
2026-04-17 06:57 41.82020 -86.51843 2828 ft 204 kts 145°
2026-04-17 06:57 41.80846 -86.50776 2606 ft 198 kts 146°
2026-04-17 06:57 41.79768 -86.49795 2769 ft 174 kts 146°
2026-04-17 06:57 41.78842 -86.48948 3023 ft 153 kts 146°
2026-04-17 06:58 41.77981 -86.48147 3572 ft 149 kts 146°
2026-04-17 06:58 41.77075 -86.47298 3742 ft 180 kts 144°
2026-04-17 06:58 41.76109 -86.46270 3800 ft 176 kts 139°
2026-04-17 06:58 41.75202 -86.45154 3776 ft 183 kts 135°
2026-04-17 06:59 41.74316 -86.43907 3661 ft 189 kts 133°
2026-04-17 06:59 41.73370 -86.42550 3402 ft 208 kts 131°
2026-04-17 06:59 41.72428 -86.41128 3162 ft 200 kts 129°
2026-04-17 06:59 41.71608 -86.39714 2869 ft 184 kts 125°
2026-04-17 07:00 41.70917 -86.38320 2413 ft 178 kts 117°
2026-04-17 07:00 41.70459 -86.36829 1939 ft 172 kts 97°
2026-04-17 07:00 41.70392 -86.35252 1554 ft 162 kts 88°
2026-04-17 07:00 41.70422 -86.33781 1087 ft 160 kts 85°
2026-04-17 07:01 41.70444 -86.32334 788 ft 147 kts 86°
2026-04-17 07:01 41.70462 -86.31153 778 ft 103 kts 90°
2026-04-17 07:01 41.70471 -86.30536 766 ft 43 kts 90°
2026-04-17 07:01 41.70488 -86.30373 763 ft 4 kts 28°
2026-04-17 07:02 41.70522 -86.30367 762 ft 7 kts
2026-04-17 07:02 41.70567 -86.30375 762 ft 7 kts 322°
2026-04-17 07:02 41.70583 -86.30409 763 ft 5 kts 294°
2026-04-17 07:02 41.70604 -86.30466 764 ft 9 kts 296°
2026-04-17 07:03 41.70635 -86.30545 766 ft 10 kts 300°
2026-04-17 07:03 41.70648 -86.30601 767 ft 4 kts 266°
2026-04-17 07:03 41.70437 -86.31189 774 ft 0 kts 154°
2026-04-17 07:03 41.70240 -86.31173 775 ft 6 kts 169°
2026-04-17 07:04 41.70203 -86.31184 774 ft 7 kts 211°
2026-04-17 07:04 41.70198 -86.31189 774 ft 0 kts 216°